EXS35AJ EGBB-LGSK

Flight info

Callsign EXS35AJ
Flight time 3h 5m
Altitude 33000
Route ADMEX Y321 EMKUK UL612 COWLY Q70 BIG UL9 KONAN DCT KOK DCT SISGA DCT RITAX/N0460F350 DCT KRH DCT UTABA L607 MOMUK DCT GEDSO DCT VEKEN DCT MAXUR DCT NEMEK DCT TUPUS DCT MEDUX UM867 KOGAT DCT ERANA UL737 TSL UL617 IBIDI
Aircraft B738/M-SDE2E3FGHIRWXY/LB1

Departure

Time 2026-05-04 11:16
Airport Birmingham Airport (EGBB)

Arrival

Time 2026-05-04 14:22
Airport Skiathos Island National Airport (LGSK)
Time Latitude Longitude Altitude Speed Heading
2026-05-04 10:35 52.45389 -1.73594 321 ft 0 kts 146°
2026-05-04 11:01 52.45390 -1.73594 322 ft 0 kts 146°
2026-05-04 11:02 52.45403 -1.73609 321 ft 2 kts 146°
2026-05-04 11:02 52.45422 -1.73628 321 ft 4 kts 162°
2026-05-04 11:05 52.45452 -1.73642 320 ft 0 kts 236°
2026-05-04 11:06 52.45446 -1.73657 320 ft 3 kts 236°
2026-05-04 11:06 52.45432 -1.73690 322 ft 4 kts 236°
2026-05-04 11:08 52.45072 -1.73776 322 ft 10 kts 191°
2026-05-04 11:10 52.44728 -1.73730 323 ft 12 kts 185°
2026-05-04 11:12 52.44363 -1.73451 322 ft 0 kts 237°
2026-05-04 11:12 52.44357 -1.73467 322 ft 5 kts 236°
2026-05-04 11:12 52.44330 -1.73533 322 ft 7 kts 239°
2026-05-04 11:12 52.44325 -1.73620 323 ft 9 kts 305°
2026-05-04 11:13 52.44339 -1.73638 322 ft 0 kts 325°
2026-05-04 11:14 52.44345 -1.73645 323 ft 7 kts 325°
2026-05-04 11:14 52.44587 -1.73913 325 ft 77 kts 326°
2026-05-04 11:14 52.45216 -1.74615 326 ft 140 kts 326°
2026-05-04 11:16 52.53439 -1.77860 3705 ft 235 kts 58°
2026-05-04 11:16 52.53984 -1.75421 4581 ft 230 kts 85°
2026-05-04 11:16 52.53843 -1.72770 5173 ft 238 kts 104°
2026-05-04 11:17 52.53403 -1.70154 5941 ft 237 kts 105°
2026-05-04 11:17 52.52950 -1.67511 6522 ft 245 kts 116°
2026-05-04 11:19 52.42992 -1.52873 10505 ft 305 kts 151°
2026-05-04 11:19 52.41086 -1.51081 10688 ft 327 kts 150°
2026-05-04 11:19 52.39064 -1.49128 10850 ft 348 kts 150°
2026-05-04 11:19 52.36929 -1.47043 10998 ft 367 kts 152°
2026-05-04 11:20 52.34515 -1.45555 11295 ft 377 kts 171°
2026-05-04 11:20 52.31911 -1.44910 11898 ft 380 kts 172°
2026-05-04 11:20 52.29289 -1.44232 12509 ft 384 kts 172°
2026-05-04 11:20 52.26640 -1.43515 13099 ft 388 kts 171°
2026-05-04 11:22 52.07547 -1.38153 17045 ft 408 kts 171°
2026-05-04 11:22 52.04743 -1.37368 17582 ft 410 kts 171°
2026-05-04 11:23 52.01918 -1.36578 18133 ft 413 kts 171°
2026-05-04 11:23 51.99085 -1.35756 18617 ft 415 kts 168°
2026-05-04 11:24 51.83119 -1.23673 21232 ft 432 kts 155°
2026-05-04 11:25 51.80422 -1.21506 21637 ft 434 kts 155°
2026-05-04 11:25 51.77716 -1.19341 22076 ft 435 kts 155°
2026-05-04 11:25 51.74998 -1.17169 22492 ft 437 kts 155°
2026-05-04 11:26 51.69485 -1.12771 23197 ft 442 kts 155°
2026-05-04 11:27 51.56427 -0.86087 25130 ft 469 kts 114°
2026-05-04 11:28 51.55199 -0.81231 25455 ft 470 kts 115°
2026-05-04 11:28 51.53959 -0.76398 25776 ft 471 kts 115°
2026-05-04 11:28 51.52698 -0.71518 26067 ft 472 kts 115°
2026-05-04 11:28 51.51435 -0.66639 26322 ft 474 kts 115°
2026-05-04 11:29 51.50599 -0.63408 26527 ft 475 kts 115°
2026-05-04 11:29 51.49338 -0.58533 26910 ft 473 kts 115°
2026-05-04 11:29 51.48079 -0.53665 27348 ft 471 kts 116°
2026-05-04 11:29 51.46825 -0.48822 27758 ft 470 kts 116°
2026-05-04 11:31 51.38051 -0.15239 30300 ft 464 kts 117°
2026-05-04 11:33 51.31172 0.18862 32362 ft 463 kts 104°
2026-05-04 11:33 51.30579 0.23880 32592 ft 463 kts 105°
2026-05-04 11:33 51.29956 0.28930 32832 ft 463 kts 105°
2026-05-04 11:34 51.29322 0.33978 33008 ft 464 kts 105°
2026-05-04 11:34 51.28698 0.39056 32989 ft 466 kts 105°
2026-05-04 11:34 51.27475 0.49203 32969 ft 463 kts 105°
2026-05-04 11:35 51.26245 0.59257 32998 ft 461 kts 105°
2026-05-04 11:35 51.24926 0.69251 33002 ft 460 kts 106°
2026-05-04 11:36 51.23627 0.79276 33002 ft 461 kts 105°
2026-05-04 11:36 51.22376 0.89296 33014 ft 461 kts 105°
2026-05-04 11:37 51.21136 0.99078 33011 ft 461 kts 106°
2026-05-04 11:37 51.19840 1.09094 33014 ft 461 kts 106°
2026-05-04 11:38 51.18520 1.19118 33024 ft 462 kts 106°
2026-05-04 11:38 51.17198 1.29135 33021 ft 462 kts 106°
2026-05-04 11:39 51.16013 1.39228 33018 ft 467 kts 100°
2026-05-04 11:41 51.14374 1.75382 33024 ft 469 kts 99°
2026-05-04 11:41 51.13842 1.85738 33020 ft 469 kts 99°
2026-05-04 11:42 51.13305 1.96096 33015 ft 469 kts 99°
2026-05-04 11:42 51.12759 2.06447 33023 ft 469 kts 100°
2026-05-04 11:43 51.12205 2.16802 33020 ft 469 kts 100°
2026-05-04 11:43 51.11643 2.27152 33018 ft 470 kts 100°
2026-05-04 11:44 51.11072 2.37509 32998 ft 470 kts 100°
2026-05-04 11:44 51.10492 2.47859 33003 ft 470 kts 100°
2026-05-04 11:45 51.09904 2.58203 33010 ft 470 kts 101°
2026-05-04 11:45 51.08507 2.68197 33019 ft 458 kts 117°
2026-05-04 11:46 51.05651 2.77125 33007 ft 453 kts 124°
2026-05-04 11:46 51.02641 2.85953 32993 ft 453 kts 124°
2026-05-04 11:47 50.99675 2.94750 33009 ft 454 kts 124°
2026-05-04 11:47 50.96706 3.03609 33005 ft 455 kts 124°
2026-05-04 11:48 50.93730 3.12478 33010 ft 456 kts 124°
2026-05-04 11:48 50.90745 3.21345 33009 ft 457 kts 124°
2026-05-04 11:49 50.87738 3.30237 32952 ft 459 kts 124°
2026-05-04 11:49 50.84724 3.39123 32975 ft 458 kts 124°
2026-05-04 11:50 50.81705 3.47992 32988 ft 458 kts 124°
2026-05-04 11:50 50.78681 3.56842 32987 ft 457 kts 124°
2026-05-04 11:51 50.75655 3.65667 32998 ft 457 kts 124°
2026-05-04 11:51 50.72624 3.74478 32972 ft 456 kts 125°
2026-05-04 11:52 50.69591 3.83261 32989 ft 456 kts 125°
2026-05-04 11:52 50.66552 3.92037 33005 ft 456 kts 125°
2026-05-04 11:53 50.63524 4.00750 33004 ft 457 kts 125°
2026-05-04 11:53 50.60539 4.09603 32999 ft 460 kts 122°
2026-05-04 11:55 50.49658 4.46145 32993 ft 460 kts 121°
2026-05-04 11:56 50.46905 4.55220 32996 ft 460 kts 121°
2026-05-04 11:56 50.44148 4.64274 32964 ft 460 kts 121°
2026-05-04 11:57 50.41391 4.73298 33004 ft 459 kts 122°
2026-05-04 11:57 50.38620 4.82331 33014 ft 459 kts 122°
2026-05-04 11:58 50.35845 4.91349 33017 ft 460 kts 122°
2026-05-04 11:58 50.33056 5.00378 33007 ft 461 kts 122°
2026-05-04 11:59 50.30255 5.09415 32975 ft 462 kts 122°
2026-05-04 11:59 50.27447 5.18441 32993 ft 462 kts 122°
2026-05-04 12:00 50.24626 5.27474 33007 ft 462 kts 122°
2026-05-04 12:00 50.21820 5.36429 33013 ft 462 kts 122°
2026-05-04 12:01 50.18987 5.45436 32995 ft 462 kts 122°
2026-05-04 12:02 50.09040 5.76815 33006 ft 461 kts 122°
2026-05-04 12:03 50.06075 5.85647 33038 ft 460 kts 125°
2026-05-04 12:03 50.04479 5.89954 33221 ft 460 kts 126°
2026-05-04 12:03 50.02859 5.94229 33530 ft 457 kts 126°
2026-05-04 12:04 50.01241 5.98482 33834 ft 456 kts 126°
2026-05-04 12:04 49.99629 6.02729 34169 ft 456 kts 126°
2026-05-04 12:04 49.98022 6.06980 34421 ft 456 kts 126°
2026-05-04 12:04 49.96419 6.11233 34607 ft 458 kts 126°
2026-05-04 12:05 49.94810 6.15510 34815 ft 458 kts 126°
2026-05-04 12:05 49.93209 6.19772 35004 ft 457 kts 126°
2026-05-04 12:05 49.89981 6.28344 35010 ft 460 kts 126°
2026-05-04 12:06 49.86764 6.36871 34980 ft 457 kts 126°
2026-05-04 12:06 49.83559 6.45332 34999 ft 454 kts 126°
2026-05-04 12:07 49.80357 6.53750 35002 ft 454 kts 126°
2026-05-04 12:07 49.77144 6.62173 34991 ft 455 kts 126°
2026-05-04 12:08 49.73922 6.70604 34996 ft 456 kts 126°
2026-05-04 12:08 49.70695 6.78996 34976 ft 459 kts 126°
2026-05-04 12:09 49.67401 6.87538 34999 ft 461 kts 126°
2026-05-04 12:09 49.64113 6.96043 35008 ft 463 kts 126°
2026-05-04 12:10 49.60820 7.04536 35018 ft 465 kts 126°
2026-05-04 12:10 49.57492 7.13095 35008 ft 466 kts 126°
2026-05-04 12:11 49.54155 7.21647 34998 ft 466 kts 126°
2026-05-04 12:11 49.50811 7.30189 35002 ft 466 kts 126°
2026-05-04 12:12 49.47461 7.38720 35019 ft 466 kts 126°
2026-05-04 12:12 49.44106 7.47232 35003 ft 465 kts 126°
2026-05-04 12:14 49.30714 7.80948 35006 ft 461 kts 127°
2026-05-04 12:15 49.27361 7.89321 35001 ft 462 kts 127°
2026-05-04 12:15 49.23997 7.97696 35016 ft 462 kts 127°
2026-05-04 12:16 49.21196 8.04648 34999 ft 463 kts 126°
2026-05-04 12:16 49.17810 8.13030 35014 ft 464 kts 126°
2026-05-04 12:17 49.14408 8.21424 35011 ft 466 kts 127°
2026-05-04 12:17 49.10986 8.29843 35008 ft 467 kts 127°
2026-05-04 12:18 49.07551 8.38267 35011 ft 468 kts 127°
2026-05-04 12:18 49.04107 8.46690 35004 ft 468 kts 127°
2026-05-04 12:19 49.00649 8.55087 35006 ft 467 kts 129°
2026-05-04 12:19 48.96336 8.62230 35004 ft 454 kts 147°
2026-05-04 12:20 48.91363 8.68129 34999 ft 453 kts 147°
2026-05-04 12:20 48.86403 8.74002 35001 ft 452 kts 147°
2026-05-04 12:21 48.81462 8.79910 34980 ft 451 kts 146°
2026-05-04 12:21 48.76557 8.85794 34992 ft 451 kts 146°
2026-05-04 12:22 48.71639 8.91685 34996 ft 451 kts 146°
2026-05-04 12:22 48.66709 8.97572 34990 ft 451 kts 146°
2026-05-04 12:23 48.61813 9.03403 34993 ft 452 kts 146°
2026-05-04 12:23 48.56872 9.09272 34997 ft 452 kts 146°
2026-05-04 12:24 48.51918 9.15141 34981 ft 453 kts 146°
2026-05-04 12:24 48.46954 9.21008 34982 ft 454 kts 146°
2026-05-04 12:25 48.41977 9.26876 34990 ft 455 kts 146°
2026-05-04 12:25 48.36980 9.32751 34987 ft 456 kts 146°
2026-05-04 12:26 48.31974 9.38624 34981 ft 457 kts 146°
2026-05-04 12:26 48.26960 9.44493 34987 ft 458 kts 146°
2026-05-04 12:27 48.22014 9.50550 34980 ft 459 kts 143°
2026-05-04 12:27 48.17212 9.56850 34984 ft 459 kts 142°
2026-05-04 12:28 48.12401 9.63149 34991 ft 459 kts 143°
2026-05-04 12:28 48.07570 9.69401 34996 ft 459 kts 143°
2026-05-04 12:29 48.02732 9.75621 34977 ft 459 kts 143°
2026-05-04 12:29 47.97899 9.81820 34966 ft 457 kts 143°
2026-05-04 12:30 47.93085 9.87983 34977 ft 456 kts 143°
2026-05-04 12:30 47.88306 9.94086 34985 ft 454 kts 143°
2026-05-04 12:31 47.83705 10.00545 34976 ft 458 kts 132°
2026-05-04 12:31 47.80272 10.08577 34987 ft 462 kts 123°
2026-05-04 12:32 47.75492 10.21030 34972 ft 462 kts 123°
2026-05-04 12:33 47.72262 10.29290 34977 ft 463 kts 123°
2026-05-04 12:33 47.69005 10.37528 34988 ft 463 kts 123°
2026-05-04 12:34 47.65728 10.45776 34996 ft 465 kts 123°
2026-05-04 12:34 47.62436 10.54040 34976 ft 466 kts 123°
2026-05-04 12:35 47.59137 10.62300 34986 ft 466 kts 123°
2026-05-04 12:35 47.55825 10.70568 34991 ft 467 kts 123°
2026-05-04 12:36 47.52512 10.78815 34973 ft 465 kts 123°
2026-05-04 12:36 47.49202 10.87026 34980 ft 464 kts 124°
2026-05-04 12:37 47.45890 10.95218 34958 ft 464 kts 123°
2026-05-04 12:37 47.42611 11.03304 34973 ft 462 kts 123°
2026-05-04 12:38 47.39306 11.11432 34953 ft 462 kts 123°
2026-05-04 12:38 47.35986 11.19569 34953 ft 463 kts 123°
2026-05-04 12:39 47.32656 11.27707 34950 ft 463 kts 124°
2026-05-04 12:39 47.29322 11.35834 34968 ft 463 kts 123°
2026-05-04 12:40 47.25984 11.43942 34971 ft 463 kts 124°
2026-05-04 12:40 47.22635 11.52054 34969 ft 464 kts 124°
2026-05-04 12:41 47.19280 11.60158 34983 ft 463 kts 124°
2026-05-04 12:41 47.15925 11.68239 34985 ft 463 kts 124°
2026-05-04 12:42 47.12584 11.76261 34993 ft 464 kts 124°
2026-05-04 12:42 47.09215 11.84335 35036 ft 464 kts 124°
2026-05-04 12:43 47.06090 11.92663 35055 ft 468 kts 119°
2026-05-04 12:43 47.03252 12.01270 35034 ft 469 kts 118°
2026-05-04 12:44 47.00422 12.09889 35033 ft 469 kts 118°
2026-05-04 12:44 46.97560 12.18462 35046 ft 468 kts 118°
2026-05-04 12:45 46.94678 12.27009 35085 ft 468 kts 119°
2026-05-04 12:45 46.91793 12.35529 35079 ft 467 kts 118°
2026-05-04 12:46 46.88912 12.44009 35078 ft 464 kts 118°
2026-05-04 12:46 46.86038 12.52444 35089 ft 463 kts 118°
2026-05-04 12:47 46.83164 12.60849 35083 ft 462 kts 119°
2026-05-04 12:47 46.80287 12.69241 35071 ft 462 kts 119°
2026-05-04 12:48 46.77399 12.77635 35047 ft 463 kts 118°
2026-05-04 12:48 46.74505 12.86021 35063 ft 464 kts 118°
2026-05-04 12:49 46.71593 12.94432 35070 ft 465 kts 118°
2026-05-04 12:49 46.68667 13.02857 35078 ft 467 kts 119°
2026-05-04 12:50 46.65727 13.11294 35058 ft 469 kts 118°
2026-05-04 12:50 46.62789 13.19702 35070 ft 469 kts 118°
2026-05-04 12:51 46.59822 13.28170 35070 ft 470 kts 119°
2026-05-04 12:51 46.56847 13.36615 35078 ft 469 kts 120°
2026-05-04 12:52 46.53200 13.44427 35057 ft 467 kts 130°
2026-05-04 12:52 46.49204 13.51878 35069 ft 469 kts 130°
2026-05-04 12:53 46.45212 13.59357 35080 ft 470 kts 129°
2026-05-04 12:53 46.41236 13.66893 35070 ft 471 kts 129°
2026-05-04 12:54 46.37267 13.74437 35078 ft 471 kts 129°
2026-05-04 12:54 46.33286 13.81995 35070 ft 473 kts 129°
2026-05-04 12:55 46.29291 13.89555 35059 ft 473 kts 129°
2026-05-04 12:55 46.25288 13.97106 35065 ft 474 kts 129°
2026-05-04 12:56 46.21271 14.04661 35072 ft 474 kts 129°
2026-05-04 12:56 46.17256 14.12194 35066 ft 474 kts 129°
2026-05-04 12:57 46.13229 14.19727 35075 ft 474 kts 129°
2026-05-04 12:57 46.09200 14.27245 35077 ft 474 kts 129°
2026-05-04 12:58 46.05155 14.34773 35059 ft 475 kts 129°
2026-05-04 12:58 46.01112 14.42275 35066 ft 475 kts 129°
2026-05-04 12:59 45.97088 14.49725 35060 ft 475 kts 129°
2026-05-04 12:59 45.93035 14.57207 35059 ft 475 kts 129°
2026-05-04 13:00 45.88973 14.64686 35050 ft 475 kts 129°
2026-05-04 13:00 45.84904 14.72158 35052 ft 475 kts 129°
2026-05-04 13:01 45.80833 14.79617 35049 ft 475 kts 129°
2026-05-04 13:01 45.76755 14.87070 35055 ft 475 kts 129°
2026-05-04 13:02 45.72847 14.94638 35058 ft 475 kts 123°
2026-05-04 13:02 45.69376 15.02680 35050 ft 475 kts 122°
2026-05-04 13:03 45.65921 15.10734 35042 ft 475 kts 122°
2026-05-04 13:03 45.62409 15.18721 35058 ft 474 kts 122°
2026-05-04 13:04 45.58882 15.26681 35062 ft 474 kts 122°
2026-05-04 13:04 45.55038 15.34313 35062 ft 473 kts 130°
2026-05-04 13:05 45.50798 15.41306 35048 ft 473 kts 132°
2026-05-04 13:05 45.46474 15.48393 35060 ft 474 kts 131°
2026-05-04 13:06 45.42183 15.55540 35047 ft 475 kts 131°
2026-05-04 13:06 45.37898 15.62715 35057 ft 476 kts 131°
2026-05-04 13:07 45.34331 15.68674 35048 ft 476 kts 131°
2026-05-04 13:07 45.30026 15.75846 35052 ft 477 kts 131°
2026-05-04 13:08 45.25014 15.84170 35028 ft 477 kts 131°
2026-05-04 13:08 45.20736 15.91299 35056 ft 477 kts 129°
2026-05-04 13:09 45.17340 15.97321 35058 ft 478 kts 128°
2026-05-04 13:09 45.13286 16.04686 35047 ft 478 kts 128°
2026-05-04 13:10 45.09177 16.12100 35051 ft 479 kts 128°
2026-05-04 13:10 45.05048 16.19475 35050 ft 479 kts 128°
2026-05-04 13:11 45.00902 16.26837 35051 ft 478 kts 128°
2026-05-04 13:11 44.96754 16.34182 35051 ft 478 kts 128°
2026-05-04 13:12 44.92600 16.41518 35048 ft 478 kts 128°
2026-05-04 13:12 44.88439 16.48850 35054 ft 479 kts 128°
2026-05-04 13:13 44.84276 16.56167 35056 ft 479 kts 128°
2026-05-04 13:13 44.80104 16.63483 35060 ft 479 kts 128°
2026-05-04 13:14 44.75926 16.70789 35058 ft 479 kts 128°
2026-05-04 13:14 44.71747 16.78079 35058 ft 479 kts 128°
2026-05-04 13:15 44.67555 16.85371 35066 ft 479 kts 128°
2026-05-04 13:15 44.63359 16.92653 35059 ft 480 kts 128°
2026-05-04 13:16 44.59158 16.99924 35065 ft 480 kts 128°
2026-05-04 13:16 44.54948 17.07194 35066 ft 480 kts 128°
2026-05-04 13:17 44.50734 17.14450 35070 ft 480 kts 128°
2026-05-04 13:17 44.46521 17.21688 35072 ft 479 kts 128°
2026-05-04 13:18 44.42309 17.28904 35074 ft 479 kts 128°
2026-05-04 13:18 44.38088 17.36119 35063 ft 480 kts 128°
2026-05-04 13:19 44.33862 17.43324 35065 ft 479 kts 128°
2026-05-04 13:19 44.29633 17.50515 35080 ft 479 kts 128°
2026-05-04 13:20 44.25406 17.57686 35087 ft 479 kts 128°
2026-05-04 13:20 44.21170 17.64854 35081 ft 479 kts 128°
2026-05-04 13:21 44.16932 17.72006 35075 ft 478 kts 128°
2026-05-04 13:21 44.12719 17.79100 35081 ft 479 kts 128°
2026-05-04 13:22 44.08472 17.86233 35077 ft 479 kts 128°
2026-05-04 13:22 44.04218 17.93361 35078 ft 479 kts 128°
2026-05-04 13:23 43.99950 18.00494 35102 ft 480 kts 128°
2026-05-04 13:23 43.95678 18.07615 35085 ft 481 kts 128°
2026-05-04 13:24 43.91392 18.14743 35063 ft 481 kts 128°
2026-05-04 13:24 43.87106 18.21852 35075 ft 480 kts 128°
2026-05-04 13:25 43.80664 18.32506 35080 ft 481 kts 129°
2026-05-04 13:25 43.76362 18.39600 35078 ft 482 kts 128°
2026-05-04 13:26 43.72043 18.46702 35084 ft 482 kts 129°
2026-05-04 13:26 43.67716 18.53801 35090 ft 483 kts 129°
2026-05-04 13:27 43.63384 18.60891 35084 ft 483 kts 128°
2026-05-04 13:27 43.59042 18.67980 35101 ft 483 kts 128°
2026-05-04 13:28 43.54694 18.75060 35103 ft 484 kts 129°
2026-05-04 13:28 43.50364 18.82094 35104 ft 485 kts 129°
2026-05-04 13:29 43.45996 18.89174 35102 ft 486 kts 128°
2026-05-04 13:29 43.41615 18.96258 35096 ft 486 kts 129°
2026-05-04 13:30 43.37231 19.03326 35095 ft 486 kts 128°
2026-05-04 13:30 43.32843 19.10386 35100 ft 485 kts 129°
2026-05-04 13:31 43.28454 19.17431 35102 ft 485 kts 128°
2026-05-04 13:31 43.24061 19.24464 35091 ft 486 kts 128°
2026-05-04 13:32 43.19660 19.31492 35094 ft 485 kts 128°
2026-05-04 13:32 43.15260 19.38503 35097 ft 485 kts 128°
2026-05-04 13:33 43.10857 19.45502 35097 ft 485 kts 129°
2026-05-04 13:33 43.06443 19.52502 35110 ft 486 kts 128°
2026-05-04 13:34 43.02023 19.59493 35085 ft 486 kts 128°
2026-05-04 13:34 42.97599 19.66475 35084 ft 486 kts 128°
2026-05-04 13:35 42.90948 19.76940 35079 ft 487 kts 128°
2026-05-04 13:36 42.86508 19.83906 35096 ft 487 kts 128°
2026-05-04 13:36 42.82071 19.90849 35106 ft 486 kts 128°
2026-05-04 13:37 42.77619 19.97805 35109 ft 487 kts 128°
2026-05-04 13:37 42.73182 20.04766 35107 ft 487 kts 127°
2026-05-04 13:38 42.68877 20.11869 35117 ft 487 kts 126°
2026-05-04 13:38 42.64592 20.19017 35111 ft 488 kts 126°
2026-05-04 13:39 42.60283 20.26146 35121 ft 488 kts 127°
2026-05-04 13:39 42.55991 20.33197 35119 ft 488 kts 126°
2026-05-04 13:40 42.51663 20.40285 35122 ft 489 kts 127°
2026-05-04 13:40 42.47318 20.47382 35151 ft 489 kts 126°
2026-05-04 13:41 42.42966 20.54476 35128 ft 490 kts 126°
2026-05-04 13:41 42.38598 20.61579 35129 ft 491 kts 126°
2026-05-04 13:42 42.32041 20.72210 35129 ft 490 kts 126°
2026-05-04 13:42 42.27665 20.79284 35131 ft 490 kts 126°
2026-05-04 13:43 42.23290 20.86342 35148 ft 489 kts 126°
2026-05-04 13:43 42.18910 20.93389 35141 ft 490 kts 126°
2026-05-04 13:44 42.14538 21.00410 35128 ft 489 kts 126°
2026-05-04 13:44 42.10101 21.07339 35125 ft 490 kts 131°
2026-05-04 13:45 42.05167 21.13694 35125 ft 492 kts 134°
2026-05-04 13:45 42.00108 21.19899 35112 ft 493 kts 134°
2026-05-04 13:46 41.95077 21.26148 35117 ft 492 kts 134°
2026-05-04 13:46 41.90075 21.32439 35102 ft 493 kts 134°
2026-05-04 13:47 41.85080 21.38733 35096 ft 492 kts 134°
2026-05-04 13:47 41.80087 21.45009 35089 ft 492 kts 134°
2026-05-04 13:48 41.75091 21.51270 35072 ft 492 kts 134°
2026-05-04 13:48 41.70108 21.57498 35096 ft 489 kts 134°
2026-05-04 13:49 41.65127 21.63711 35078 ft 490 kts 134°
2026-05-04 13:49 41.60162 21.69889 35083 ft 491 kts 134°
2026-05-04 13:50 41.55151 21.76112 35096 ft 493 kts 134°
2026-05-04 13:50 41.50113 21.82355 35104 ft 495 kts 134°
2026-05-04 13:51 41.45052 21.88612 35101 ft 496 kts 134°
2026-05-04 13:51 41.39980 21.94868 35093 ft 497 kts 134°
2026-05-04 13:52 41.32373 22.04224 35094 ft 496 kts 134°
2026-05-04 13:53 41.27300 22.10447 35086 ft 496 kts 134°
2026-05-04 13:53 41.22232 22.16653 35105 ft 495 kts 135°
2026-05-04 13:54 41.14594 22.25872 35084 ft 495 kts 137°
2026-05-04 13:55 41.06572 22.34482 35089 ft 494 kts 139°
2026-05-04 13:55 40.98539 22.43005 35084 ft 493 kts 139°
2026-05-04 13:56 40.94112 22.47743 35106 ft 492 kts 139°
2026-05-04 13:57 40.86085 22.56201 35077 ft 493 kts 144°
2026-05-04 13:58 40.73783 22.64191 35103 ft 493 kts 153°
2026-05-04 13:58 40.67639 22.68091 35070 ft 481 kts 153°
2026-05-04 13:58 40.64674 22.69985 35078 ft 466 kts 153°
2026-05-04 13:59 40.61812 22.71815 35058 ft 448 kts 153°
2026-05-04 13:59 40.59067 22.73570 35060 ft 429 kts 153°
2026-05-04 14:00 40.51115 22.78650 35129 ft 429 kts 153°
2026-05-04 14:00 40.45747 22.82070 34540 ft 428 kts 153°
2026-05-04 14:00 40.43054 22.83783 33820 ft 435 kts 153°
2026-05-04 14:01 40.40287 22.85542 32811 ft 447 kts 153°
2026-05-04 14:01 40.37453 22.87341 31849 ft 457 kts 153°
2026-05-04 14:01 40.31693 22.90989 30046 ft 459 kts 153°
2026-05-04 14:02 40.28817 22.92808 28755 ft 459 kts 153°
2026-05-04 14:02 40.25929 22.94632 27327 ft 463 kts 153°
2026-05-04 14:02 40.23052 22.96449 25882 ft 467 kts 153°
2026-05-04 14:02 40.20122 22.98297 24620 ft 466 kts 153°
2026-05-04 14:03 40.17221 23.00124 23664 ft 458 kts 153°
2026-05-04 14:03 40.14376 23.01914 22622 ft 448 kts 153°
2026-05-04 14:03 40.11593 23.03663 21529 ft 441 kts 153°
2026-05-04 14:03 40.08845 23.05390 20422 ft 436 kts 153°
2026-05-04 14:04 40.03477 23.08759 18802 ft 415 kts 153°
2026-05-04 14:04 40.00910 23.10367 18171 ft 403 kts 153°
2026-05-04 14:04 39.98411 23.11929 17543 ft 394 kts 153°
2026-05-04 14:05 39.93579 23.14951 16460 ft 382 kts 152°
2026-05-04 14:05 39.91114 23.16496 15942 ft 407 kts 152°
2026-05-04 14:05 39.88504 23.18131 15345 ft 419 kts 152°
2026-05-04 14:06 39.85887 23.19764 14741 ft 415 kts 152°
2026-05-04 14:06 39.83284 23.21384 14162 ft 411 kts 152°
2026-05-04 14:06 39.80714 23.22983 13545 ft 408 kts 152°
2026-05-04 14:06 39.78166 23.24567 12922 ft 404 kts 152°
2026-05-04 14:07 39.75637 23.26138 12361 ft 400 kts 152°
2026-05-04 14:07 39.73141 23.27688 11786 ft 396 kts 152°
2026-05-04 14:07 39.70675 23.29219 11397 ft 388 kts 152°
2026-05-04 14:07 39.68280 23.30702 11267 ft 374 kts 152°
2026-05-04 14:08 39.65999 23.32114 11103 ft 362 kts 152°
2026-05-04 14:08 39.63729 23.33519 10954 ft 351 kts 152°
2026-05-04 14:08 39.61589 23.34843 10800 ft 341 kts 152°
2026-05-04 14:08 39.59478 23.36149 10680 ft 331 kts 152°
2026-05-04 14:09 39.55434 23.38648 10437 ft 313 kts 152°
2026-05-04 14:09 39.53497 23.39843 10310 ft 305 kts 152°
2026-05-04 14:10 39.49761 23.42148 10035 ft 291 kts 152°
2026-05-04 14:10 39.47936 23.43273 9758 ft 290 kts 152°
2026-05-04 14:10 39.46118 23.44394 9489 ft 288 kts 153°
2026-05-04 14:10 39.44317 23.45503 9211 ft 286 kts 153°
2026-05-04 14:11 39.42524 23.46607 8940 ft 284 kts 153°
2026-05-04 14:11 39.38968 23.48793 8415 ft 281 kts 153°
2026-05-04 14:11 39.37206 23.49874 8159 ft 280 kts 153°
2026-05-04 14:12 39.35446 23.50955 7896 ft 279 kts 153°
2026-05-04 14:12 39.33696 23.52028 7632 ft 278 kts 153°
2026-05-04 14:12 39.30237 23.54149 7125 ft 276 kts 153°
2026-05-04 14:13 39.28483 23.55223 6864 ft 275 kts 153°
2026-05-04 14:13 39.26773 23.56270 6600 ft 275 kts 153°
2026-05-04 14:13 39.25047 23.57326 6341 ft 274 kts 153°
2026-05-04 14:13 39.23325 23.58379 6065 ft 274 kts 154°
2026-05-04 14:14 39.21606 23.59430 5795 ft 273 kts 154°
2026-05-04 14:14 39.18040 23.61026 5279 ft 273 kts 186°
2026-05-04 14:14 39.16223 23.60437 5020 ft 269 kts 208°
2026-05-04 14:15 39.12932 23.58300 4545 ft 252 kts 212°
2026-05-04 14:15 39.09959 23.56319 3983 ft 228 kts 211°
2026-05-04 14:16 39.07295 23.54568 3552 ft 205 kts 211°
2026-05-04 14:16 39.06048 23.53753 3297 ft 197 kts 211°
2026-05-04 14:17 39.03693 23.52218 2842 ft 183 kts 211°
2026-05-04 14:17 39.02646 23.51379 2568 ft 171 kts 231°
2026-05-04 14:17 39.02150 23.48730 2126 ft 155 kts 288°
2026-05-04 14:18 39.02671 23.47531 1980 ft 156 kts 315°
2026-05-04 14:18 39.04659 23.46638 1715 ft 160 kts
2026-05-04 14:19 39.06836 23.47218 1645 ft 151 kts
2026-05-04 14:19 39.07810 23.47489 1616 ft 136 kts 10°
2026-05-04 14:19 39.08741 23.47750 1589 ft 138 kts 11°
2026-05-04 14:19 39.09698 23.48008 1532 ft 141 kts
2026-05-04 14:20 39.10643 23.48153 1346 ft 137 kts
2026-05-04 14:20 39.11611 23.48232 1167 ft 142 kts
2026-05-04 14:20 39.12577 23.48340 972 ft 137 kts
2026-05-04 14:21 39.14427 23.48910 585 ft 143 kts 19°
2026-05-04 14:21 39.15385 23.49337 403 ft 149 kts 20°
2026-05-04 14:21 39.16361 23.49770 191 ft 146 kts 19°
2026-05-04 14:21 39.17316 23.50191 32 ft 136 kts 18°
2026-05-04 14:22 39.17890 23.50440 39 ft 17 kts
2026-05-04 14:22 39.17926 23.50401 41 ft 2 kts 275°
2026-05-04 14:22 39.17925 23.50381 41 ft 2 kts 265°
2026-05-04 14:22 39.17924 23.50361 40 ft 2 kts 273°
2026-05-04 14:23 39.17944 23.50275 38 ft 3 kts 288°
2026-05-04 14:23 39.17949 23.50259 38 ft 0 kts 289°
2026-05-04 14:24 39.17949 23.50260 38 ft 0 kts 289°
2026-05-04 14:30 39.17948 23.50260 38 ft 0 kts 289°